RH
13 12 12 11 10 11 12 12 12 11 11 12 12 12 13 13 13 13 12 14 25 36 41 40 40 40 39 43 42 42 43 42 34 30 25 26 28 28 26 26 26 25 22 21 22
13 12 12 11 10 9 10 11 12 11 10 10 11 10 11 11 12 12 14 14 11 17 27 35 38 41 45 43 49 48 50 41 30 30 30 30 30 29 29 28 29 29 26 26 26
14 13 12 11 11 10 9 9 9 12 11 10 10 10 10 11 13 11 14 16 16 12 18 28 37 37 41 41 41 46 46 37 34 35 37 36 36 35 33 33 32 32 33 33 32
12 12 12 12 12 11 10 10 10 10 12 11 10 10 11 16 14 15 15 16 18 20 22 24 34 42 42 44 37 43 40 37 36 39 41 41 39 39 37 35 32 32 32 33 33
11 12 11 13 14 13 12 11 11 10 10 11 10 12 18 20 14 12 13 15 19 27 30 28 32 39 43 42 43 45 41 40 42 43 44 43 43 42 41 39 37 36 35 35 35
11 13 14 14 16 18 18 16 15 13 12 13 14 22 24 25 17 17 18 20 21 27 34 39 40 42 46 45 46 44 45 43 41 42 43 45 44 47 45 44 43 42 41 39 38
12 14 17 20 23 24 23 22 21 20 21 20 22 29 31 25 22 23 24 26 30 32 32 37 44 49 48 47 46 46 47 45 43 42 43 46 45 49 50 49 47 46 43 42 39
15 16 19 22 25 26 25 24 23 24 24 26 28 34 32 27 28 26 28 30 34 36 36 38 45 43 45 43 42 42 43 46 41 40 39 40 39 39 45 47 48 48 45 43 43
19 21 24 26 28 29 27 25 25 29 30 31 32 35 35 30 30 31 31 31 35 39 39 45 43 42 43 45 45 44 47 45 41 39 42 45 42 39 34 34 34 40 42 43 45
22 26 29 31 31 31 29 27 28 34 35 36 42 41 39 34 31 31 30 30 30 32 38 41 42 42 45 48 49 52 54 50 49 45 48 48 47 42 35 37 38 36 35 38 39
28 33 36 35 33 32 29 27 28 29 30 32 34 37 36 36 35 34 31 31 31 32 35 37 42 44 42 45 47 50 52 53 50 51 53 54 52 49 51 47 46 41 38 39 39
34 37 37 35 33 32 30 28 31 33 36 29 31 33 30 33 36 36 37 37 38 43 44 45 45 44 48 50 51 53 55 53 53 55 60 59 58 60 59 58 51 48 44 44 45
40 39 37 34 32 31 29 26 27 34 38 26 30 35 34 38 39 42 42 42 42 44 49 51 49 50 56 60 62 62 64 62 62 66 67 63 63 63 64 59 55 55 53 53 55
40 38 36 32 28 25 24 23 26 37 43 33 43 43 39 38 37 40 47 45 46 50 54 54 58 57 62 66 71 71 68 68 69 71 74 68 74 62 66 65 64 66 63 63 65
41 35 31 28 26 24 22 23 32 40 51 38 41 38 41 43 45 44 47 49 50 54 51 55 52 58 65 65 68 64 67 71 70 73 73 73 79 68 71 72 73 73 71 66 63
34 25 20 19 20 21 22 23 35 47 51 44 44 47 44 46 46 41 46 51 53 54 52 49 49 52 53 52 54 56 57 60 62 68 86 69 75 77 79 80 81 74 66 61 60
19 13 13 16 20 20 21 24 40 52 35 47 47 44 47 49 52 51 53 54 61 63 64 58 52 52 55 58 58 59 67 85 84 83 80 64 77 86 80 75 66 64 62 62 62
20 12 10 18 21 23 22 32 50 40 44 43 41 47 54 53 61 64 65 70 66 63 64 69 75 62 64 68 71 70 72 84 91 86 78 72 78 83 81 75 72 74 74 76 77
20 13 14 23 23 27 30 41 41 47 41 43 44 46 56 60 62 63 68 82 86 86 88 89 86 70 69 69 77 87 90 91 96 97 95 85 88 83 83 85 84 83 82 79 75
24 17 20 25 26 28 39 42 46 51 51 53 60 50 53 58 58 67 65 76 83 88 87 82 88 75 70 77 84 94 87 97 97 97 96 97 96 96 95 93 92 91 87 82 77
29 28 26 31 30 48 55 64 58 60 57 57 54 56 58 62 59 60 74 80 84 85 91 96 97 88 69 74 86 96 97 97 96 97 96 95 96 95 90 92 93 91 87 82 79
37 40 32 35 36 54 62 70 62 64 67 70 63 68 72 74 69 67 76 81 81 81 90 90 94 96 98 98 98 96 97 98 97 96 95 89 95 95 93 94 94 94 92 91 87
48 44 41 46 61 74 72 65 79 79 70 75 79 80 76 79 82 82 85 83 81 77 84 88 97 98 95 94 94 88 92 92 95 97 97 94 97 95 93 97 93 91 93 95 86
62 66 58 61 70 76 80 73 73 71 93 94 88 84 82 80 81 82 74 76 75 70 76 83 90 95 97 97 95 92 97 96 90 94 96 94 97 98 95 94 94 96 96 83 81
76 81 84 82 79 81 91 87 84 94 93 90 88 85 90 87 80 72 65 71 70 70 74 80 85 84 87 86 91 91 87 87 93 87 87 83 96 95 90 87 88 90 83 79 79
82 86 97 87 92 85 88 85 81 80 88 81 90 89 95 97 91 82 78 73 68 64 80 85 87 88 89 82 83 91 83 82 79 79 82 77 83 78 77 75 77 76 73 73 75
86 88 99 92 90 98 97 94 86 86 65 80 83 91 95 97 93 88 82 75 73 76 87 94 93 96 91 93 91 87 78 75 74 73 77 84 73 72 76 74 76 75 74 71 68